Regional Weather Roundup
Issued by NWS Little Rock, AR

Home | Current Version | Previous Version | Text Only | Print | Product List | Glossary On
Versions: 1 2 3 4 5 6 7 8 9 10 11 12 13 14 15 16 17 18 19 20 21 22 23 24 25 26 27 28 29 30 31 32 33 34 35 36 37 38 39 40 41 42 43 44 45 46 47 48 49 50
000
ASUS44 KLZK 201105
RWRLZK

WEATHER ROUNDUP FOR ARKANSAS
NATIONAL WEATHER SERVICE LITTLE ROCK AR
600 AM CDT SAT SEP 20 2014

NOTE: "FAIR" INDICATES FEW OR NO CLOUDS BELOW 12,000 FEET WITH NO
SIGNIFICANT WEATHER AND/OR OBSTRUCTIONS TO VISIBILITY.

ARZ001-003-010-029-201200-
NORTHWEST ARKANSAS

CITY           SKY/WX    TMP DP  RH WIND       PRES   REMARKS
FAYETTEVILLE   CLEAR     64  63  96 CALM      30.03R
FORT SMITH     CLEAR     69  66  90 NE3       30.00S FOG
HARRISON       CLEAR     63  63 100 CALM      30.04R FOG
BENTONVILLE    CLEAR     64  63  94 S3        30.04R
ROGERS         CLEAR     65  63  93 SE3       30.04R
SILOAM SPGS    CLEAR     64  61  88 S5        30.04R
HIGHFILL       MOCLDY    63  62  97 S3        30.03R FOG
SPRINGDALE     CLEAR     66  64  94 CALM      30.05  FOG
$$

ARZ004-005-016-201200-
NORTH CENTRAL ARKANSAS

CITY           SKY/WX    TMP DP  RH WIND       PRES   REMARKS
BATESVILLE     MOCLDY    63  61  94 CALM      30.04R VSB 1/2
FLIPPIN        CLOUDY    61  55  82 CALM      30.04R VSB 1/4
MTN HOME       CLEAR     63  62  97 CALM      30.03R FOG
$$

ARZ040-041-201200-
WEST CENTRAL ARKANSAS

CITY           SKY/WX    TMP DP  RH WIND       PRES   REMARKS
MENA           CLOUDY    68  66  94 CALM      30.04R
MOUNT IDA      FOG       67  65  93 CALM      30.02R VSB 1/4
$$

ARZ009-017-025-026-028-201200-
NORTHEAST ARKANSAS

CITY           SKY/WX    TMP DP  RH WIND       PRES   REMARKS
CORNING          N/A     61  61 100 CALM      30.04S FOG
JONESBORO      CLEAR     63  63 100 CALM      30.03R
NEWPORT        FOG       63  63 100 CALM      30.04R VSB 1/4
WALNUT RIDGE   CLEAR     63  59  88 CALM      30.03R
BLYTHEVILLE    CLEAR     65  64  97 CALM      30.04R
$$

ARZ022-023-033-042-044-201200-
CENTRAL ARKANSAS

CITY           SKY/WX    TMP DP  RH WIND       PRES   REMARKS
LITTLE ROCK    CLEAR     69  66  90 CALM      30.02R
N LITTLE ROCK    N/A     70  68  92 S3        30.02R
JACKSONVILLE   CLEAR     64  63  96 CALM      30.02R
SEARCY         CLEAR     64  64 100 CALM      30.04R FOG
HOT SPRINGS    FOG       67  66  97 CALM      30.03R VSB 1
RUSSELLVILLE   CLEAR     65  64  97 CALM      30.02R FOG
CLINTON        FOG       64  64 100 CALM      30.05R VSB<1/4
$$

ARZ036-201200-
EAST ARKANSAS

CITY           SKY/WX    TMP DP  RH WIND       PRES   REMARKS
WEST MEMPHIS   FOG       65  65 100 CALM      30.02R VSB 1/2
$$

ARZ050-053-066-070-073-201200-
SOUTHWEST ARKANSAS

CITY           SKY/WX    TMP DP  RH WIND       PRES   REMARKS
ARKADELPHIA    FAIR      66  66 100 CALM      30.02R FOG
CAMDEN         FOG       64  63  94 CALM      30.00S VSB 1/2
TEXARKANA      FOG       68  68 100 CALM      30.01R VSB 1/2
EL DORADO      CLEAR     66  66 100 CALM      30.00S FOG
DE QUEEN       FOG       66  66 100 CALM      30.00R VSB 1/4
$$

ARZ056-057-069-201200-
SOUTHEAST ARKANSAS

CITY           SKY/WX    TMP DP  RH WIND       PRES   REMARKS
PINE BLUFF     CLEAR     66  64  93 CALM      30.01S
STUTTGART      CLEAR     70  64  83 SE5       30.02S
MONTICELLO     CLEAR     67  65  93 CALM      30.01R

$$





USA.gov is the U.S. government's official web portal to all federal, state and local government web resources and services.